Eugene, OR

9:37 PM PDT on April 25, 2017 (GMT -0700)
Mahlon Sweet

Weather History for KEUG - May, 2013

Change the Weather History Date:

Saturday, May 11, 2013

  Actual Average Record
Temperature  
Mean Temperature 67 °F 54 °F  
Max Temperature 84 °F 66 °F 88 °F (1931)
Min Temperature 49 °F 43 °F 29 °F (1985)
Degree Days  
Heating Degree Days 0 11  
Month to date heating degree days 47 127  
Since 1 July heating degree days 4067 4469  
Cooling Degree Days 2 0  
Month to date cooling degree days 3 0  
Year to date cooling degree days 3 0  
Growing Degree Days 16 (Base 50)    
Moisture  
Dew Point 55 °F    
Average Humidity 67    
Maximum Humidity 93    
Minimum Humidity 40    
Precipitation  
Precipitation 0.00 in 0.09 in 1.01 in (1937)
Month to date precipitation 0.00 0.99  
Year to date precipitation 6.54 21.61  
Snow  
Snow 0.00 in - - ()
Month to date snowfall 0.0  
Since 1 July snowfall 0.0  
Snow Depth 0.00 in    
Sea Level Pressure  
Sea Level Pressure 30.11 in    
Wind  
Wind Speed 4 mph (SW)    
Max Wind Speed 9 mph    
Max Gust Speed 12 mph    
Visibility 10 miles    
Events      
T = Trace of Precipitation, MM = Missing Value Source: NWS Daily Summary

Daily Weather History Graph

Daily Weather History Graph

Search for Another Location

Airport or City:

Trip Planner

Search our weather history database for the weather conditions in past years. The results will help you decide how hot, cold, wet, or windy it might be!

Date:

Astronomy

May. 11, 2013 Rise Set
Actual Time 5:50 AM PDT 8:28 PM PDT
Civil Twilight 5:17 AM PDT 9:01 PM PDT
Nautical Twilight 4:36 AM PDT 9:43 PM PDT
Astronomical Twilight 3:48 AM PDT 10:31 PM PDT
Moon 7:01 AM PDT (5/11) 10:14 PM PDT (5/11)
Length of Visible Light 15h 44m
Length of Day
14h 37m
Waxing Crescent, 3% of the Moon is Illuminated
May 11
Waxing Crescent
May 17
First Quarter
May 24
Full
May 31
Last Quarter
Jun 8
New

Hourly Weather History & Observations

Time (PDT) Temp. Heat Index Dew Point Humidity Pressure Visibility Wind Dir Wind Speed Gust Speed Precip Events Conditions
12:54 AM 55.0 °F - 50.0 °F 83% 30.22 in 10.0 mi South 3.5 mph - N/A   Clear
1:54 AM 55.0 °F - 48.9 °F 80% 30.22 in 10.0 mi SSW 6.9 mph - N/A   Clear
2:54 AM 53.1 °F - 48.9 °F 86% 30.21 in 10.0 mi South 6.9 mph - N/A   Clear
3:54 AM 53.1 °F - 48.9 °F 86% 30.20 in 10.0 mi South 6.9 mph - N/A   Clear
4:54 AM 51.1 °F - 48.0 °F 89% 30.18 in 10.0 mi South 5.8 mph - N/A   Clear
5:54 AM 48.9 °F - 46.9 °F 93% 30.17 in 10.0 mi SSW 3.5 mph - N/A   Mostly Cloudy
6:54 AM 54.0 °F - 50.0 °F 86% 30.17 in 10.0 mi West 3.5 mph - N/A   Mostly Cloudy
7:54 AM 57.0 °F - 51.1 °F 81% 30.16 in 10.0 mi SW 4.6 mph - N/A   Mostly Cloudy
8:54 AM 60.1 °F - 52.0 °F 75% 30.15 in 10.0 mi WSW 3.5 mph - N/A   Mostly Cloudy
9:54 AM 66.0 °F - 53.1 °F 63% 30.14 in 10.0 mi Calm Calm - N/A   Mostly Cloudy
10:54 AM 71.1 °F - 55.9 °F 59% 30.13 in 10.0 mi NNW 3.5 mph - N/A   Mostly Cloudy
11:54 AM 73.9 °F - 55.9 °F 53% 30.11 in 10.0 mi Calm Calm - N/A   Mostly Cloudy
12:54 PM 77.0 °F - 55.9 °F 48% 30.10 in 10.0 mi Calm Calm - N/A   Overcast
1:54 PM 80.1 °F 80.2 °F 55.9 °F 43% 30.08 in 10.0 mi Variable 3.5 mph - N/A   Overcast
2:54 PM 84.0 °F 83.5 °F 57.9 °F 41% 30.06 in 10.0 mi NNE 4.6 mph - N/A   Mostly Cloudy
3:54 PM 82.0 °F 82.1 °F 59.0 °F 45% 30.05 in 10.0 mi Calm Calm - N/A   Mostly Cloudy
4:54 PM 82.9 °F 83.3 °F 61.0 °F 47% 30.03 in 10.0 mi NNE 6.9 mph - N/A   Mostly Cloudy
5:54 PM 82.9 °F 83.2 °F 60.1 °F 46% 30.02 in 10.0 mi North 5.8 mph - N/A   Mostly Cloudy
6:54 PM 78.8 °F - 64.4 °F 61% 30.01 in 10.0 mi North 3.5 mph - N/A   Mostly Cloudy
7:54 PM 75.9 °F - 62.1 °F 62% 30.03 in 10.0 mi Calm Calm - N/A   Mostly Cloudy
8:54 PM 68.0 °F - 57.9 °F 70% 30.05 in 10.0 mi SW 6.9 mph - N/A   Mostly Cloudy
9:54 PM 66.0 °F - 55.9 °F 70% 30.07 in 10.0 mi SW 6.9 mph - N/A   Mostly Cloudy
10:54 PM 64.0 °F - 55.9 °F 75% 30.09 in 10.0 mi SW 9.2 mph - N/A   Partly Cloudy
11:54 PM 63.0 °F - 55.9 °F 78% 30.11 in 10.0 mi SW 9.2 mph - N/A   Clear